IRIDIUM 83 [P]

Last updated on Thu Oct 18 2018 00:08:18 GMT+0000 (Coordinated Universal Time)

1 25531U 98066E 18290.86722148 .01850966 -14331-5 12604-2 0 9991 2 25531 86.4066 145.9983 0417981 167.3063 193.9127 15.37723160 44288

Satellite not in orbit